CUBEBEL-1 (BSUSAT-1) (43666 NORAD) Tracking and Keplerian Element Data

This shows tracking and keplerian element data for the satellite.

Feedback or suggestion? Click here.




ElementValue
Catalog43666
NameCUBEBEL-1 (BSUSAT-1)
Epoch Orbit3145
Epoch Day144.43548716
Epoch Year2019
RAAN169.0833
Inclination97.5201
Eccentricity0.0013485
Argument of Perigee277.9927
Mean Anonmoly189.5191
Mean Motion15.17530971
Decay Rate7.1E-06
L11 43666U 18083E 19144.43548716 .00000710 00000-0 38741-4 0 9997
L22 43666 97.5201 169.0833 0013485 277.9927 189.5191 15.17530971 31451

Live tracking and technical data element details for CUBEBEL-1 (BSUSAT-1) (NORAD 43666). CUBEBEL-1 (BSUSAT-1) can be tracked NOW for your location showing map with azimuth and elevation plus other details from your city location.

Track the satellite on the map from your city or location and see movement details for azimuth, elevation, latitude, longitude, range, height, and movement on the map or in text.







IsCatalogInMostPopularTable: catalog: 43666, numindb: 107
Update: records affected: 1



GetName: 43666 CUBEBEL-1 (BSUSAT-1)

Hit Count: updated at: Fri, 24 May 2019 20:47:52 GMT